Hourly Data Report for October 09, 2016

All times are specified in Local Standard Time (LST). Add 1 hour to adjust for Daylight Saving Time where and when it is observed.

RANKIN INLET A
NUNAVUT

62°48'38.000" N
92°06'53.000" W
32.30 m
2303405
71083
YRT

Download Data

Hourly Data (October 2016)
Hourly Data Report for October 9, 2016
Temp Definition
°C
Dew Point Temp Definition
°C
Rel Hum Definition
%
Wind Dir Definition
10's deg

Wind Spd Definition
km/h
Visibility Definition
km
Stn Press Definition
kPa
Hmdx Definition


Wind Chill Definition


Weather Definition


TIME
00:00 Legend Double Dagger -1.4 -2.2 94 3 17 16.1 101.76   -7 Snow
01:00 Legend Double Dagger -1.5 -2.5 93 36 11 16.1 101.76   -5 Snow
02:00 Legend Double Dagger -1.5 -2.3 94 34 14 24.1 101.76   -6 LegendNANA
03:00 Legend Double Dagger -1.5 -2.3 94 34 14 24.1 101.76   -6 Mostly Cloudy
04:00 Legend Double Dagger -1.5 -2.5 93 34 12 24.1 101.78   -6 LegendNANA
05:00 Legend Double Dagger -1.7 -2.5 94 34 9 24.1 101.81   -5 LegendNANA
06:00 Legend Double Dagger -1.7 -2.3 96 35 9 24.1 101.80   -5 Mostly Cloudy
07:00 Legend Double Dagger -1.7 -2.5 94 32 10 24.1 101.82   -5 LegendNANA
08:00 Legend Double Dagger -1.5 -2.3 94 32 12 24.1 101.82   -6 LegendNANA
09:00 Legend Double Dagger -1.2 -2.2 93 31 14 24.1 101.82   -6 Mostly Cloudy
10:00 Legend Double Dagger -0.8 -2.1 91 31 15 24.1 101.81   -5 LegendNANA
11:00 Legend Double Dagger -0.5 -1.8 91 30 13 24.1 101.82   -5 LegendNANA
12:00 Legend Double Dagger -0.3 -1.9 89 30 17 24.1 101.82   -5 Mostly Cloudy
13:00 Legend Double Dagger -0.1 -2.2 86 30 16 24.1 101.81   -5 LegendNANA
14:00 Legend Double Dagger -0.1 -2.2 86 30 17 24.1 101.80   -5 LegendNANA
15:00 Legend Double Dagger 0.0 -2.1 86 31 14 24.1 101.80   -4 Mostly Cloudy
16:00 Legend Double Dagger -0.2 -2.6 84 30 14 24.1 101.80   -4 LegendNANA
17:00 Legend Double Dagger -0.5 -2.4 87 30 15 24.1 101.82   -5 LegendNANA
18:00 Legend Double Dagger -1.2 -3.7 83 31 13 24.1 101.83   -5 Mostly Cloudy
19:00 Legend Double Dagger -1.5 -4.3 81 31 13 24.1 101.83   -6 LegendNANA
20:00 Legend Double Dagger -1.7 -4.4 82 30 10 24.1 101.81   -5 LegendNANA
21:00 Legend Double Dagger -2.4 -4.9 83 32 17 24.1 101.82   -8 Mainly Clear
22:00 Legend Double Dagger -3.4 -5.4 86 30 17 24.1 101.79   -9 LegendNANA
23:00 Legend Double Dagger -4.1 -5.8 88 30 15 24.1 101.76   -9 LegendNANA

Notes on Data Quality.

Legend

  • E = Estimated
  • M = Missing
  • NA = Not Available
  • ‡ = Partner data that is not subject to review by the National Climate Archives
Date modified: